[[{"header":{"parameterUnit":"m.s-1","parameterCategory":1,"la1":30.2991,"la2":30.254,"lo1":-89.0895,"lo2":-89.0444,"dy":0.0017,"dx":0.0017,"nx":28,"ny":28,"refTime":"2024-07-28T09:00:00:Z","depth":0,"parameterNumber":2,"parameterNumberName":"U-component_of_WINDS"},"data":[0,0,0,0,0,0,0,0,0,0,0,0,0,0,0,0,0,0,0,0,0,0,0,0,0,0,0,0,0,0,0,0,0,0,0,0,0,0,0,0,0,0,0,0,0,0,0,0,0,0,0,0,0,0,0,0,0,0,1.9529,1.9529,0,1.9545,1.9546,1.9546,1.9485,1.9483,1.9482,1.948,1.9501,1.9503,1.9505,0,0,0,0,0,0,0,0,0,0,0,0,0,1.9447,1.9449,1.9529,1.9529,1.9529,1.9545,1.9546,1.9546,1.9485,1.9483,1.9481,1.9479,1.95,1.9503,1.9505,0,0,0,0,0,0,0,0,0,0,0,0,0,1.9475,1.945,1.9529,1.9501,1.9499,1.9545,1.9546,1.9546,1.9486,1.9483,1.948,1.9478,1.9499,1.9503,1.9506,1.9581,0,0,1.9516,1.9518,0,0,0,0,0,0,0,0,1.9474,1.9478,1.9505,1.9503,1.95,1.951,1.9524,1.9558,1.9487,1.9491,1.948,1.9477,1.9507,1.9509,1.9518,1.9582,1.9583,1.9516,1.9519,1.952,1.9521,0,0,0,0,0,0,0,1.9472,1.9477,1.9535,1.9505,1.9503,1.9488,1.9489,1.953,1.9514,1.949,1.9486,1.9489,1.9505,1.9515,1.9518,1.9583,1.9516,1.9519,1.9521,1.9523,1.9707,1.9709,0,0,0,0,0,0,1.9473,1.9476,1.9535,1.9536,1.948,1.9492,1.9493,1.951,1.9513,1.9511,1.9491,1.9486,1.9511,1.9515,1.9519,1.9605,1.952,1.9523,1.9525,1.9704,1.9707,1.971,0,0,0,0,0,0,1.9472,1.9479,1.9534,1.9505,1.9511,1.9496,1.9516,1.9512,1.9522,1.9514,1.9511,1.9504,1.9509,1.9514,1.9565,1.9605,1.9525,1.9528,1.97,1.9705,1.9709,1.9779,0,0,0,0,0,0,1.947,1.9479,1.9507,1.9506,1.9512,1.958,1.9518,1.9514,1.9527,1.9521,1.9525,1.9524,1.9507,1.956,1.9568,1.9608,1.953,1.9697,1.9702,1.9707,1.9773,1.9785,1.9796,0,0,0,0,0,1.9467,1.9528,1.9509,1.9516,1.9547,1.9582,1.9586,1.9565,1.9531,1.9559,1.9553,1.9524,1.9599,1.9566,1.9575,1.9616,1.9694,1.9701,1.9707,1.9768,1.9783,1.9795,0,0,0,0,0,0,1.9537,1.9527,1.9506,1.9569,1.9576,1.9572,1.9607,1.9582,1.9601,1.9594,1.9567,1.9569,1.9624,1.9625,1.9589,1.9687,1.9641,1.9649,1.9684,1.9698,1.9709,1.9707,1.9533,0,0,0,0,0,1.9559,1.9587,1.9578,1.9634,1.9639,1.9622,1.9637,1.9619,1.9627,1.9631,1.9629,1.9638,1.9663,1.9681,1.9705,1.9773,1.9772,1.9805,1.9817,1.9826,1.9833,1.9867,1.9881,1.9731,1.9731,1.9731,0,0,1.9606,1.9605,1.9625,1.9648,1.9652,1.9682,1.9626,1.9661,1.9682,1.9636,1.9683,1.9682,1.9691,1.975,1.9776,1.9753,1.9874,1.9834,1.9841,1.9844,1.9875,1.9889,1.9901,1.9736,1.9735,1.9734,0,0,1.9707,1.9709,1.9754,1.9758,1.9764,1.9752,1.9763,1.9762,1.9759,1.9805,1.977,1.9796,1.9842,1.9848,1.9858,1.9957,1.993,1.9966,2.0024,2.0057,2.0069,2.0079,2.0112,2.0125,1.9973,1.9974,1.9974,0,1.9765,1.9808,1.9781,1.9817,1.9828,1.9785,1.983,1.9836,1.985,1.9858,1.9832,1.9885,1.9889,1.9947,1.9971,1.9981,1.9992,1.9965,2.0069,2.0079,2.0088,2.012,2.0133,1.9978,1.9977,1.9977,1.9976,0,1.9877,1.9907,1.9943,1.9955,1.997,2.001,1.999,2.0008,1.9989,1.998,2.0026,2.0028,2.0049,2.0062,2.0045,2.0118,2.0103,2.0073,2.0026,2.0107,2.0136,2.0148,1.9984,1.9982,1.9981,1.998,0,0,2.0024,2.0018,2.0031,2.0034,2.0036,2.0059,2.0097,2.0116,2.0131,2.0142,2.0172,2.021,2.0181,2.0192,2.0175,2.0204,2.028,2.017,2.017,2.0189,2.0357,2.0379,2.0393,2.0262,2.0264,2.0266,2.0356,0,2.0121,2.0183,2.016,2.0225,2.025,2.0209,2.0242,2.0246,2.0239,2.026,2.0252,2.0278,2.0239,2.0245,2.0272,2.0265,2.0313,2.0258,2.0289,2.0291,2.0287,2.0409,2.0432,2.0517,2.0367,2.0369,2.0371,0,2.0242,2.0254,2.0321,2.0315,2.0325,2.0355,2.0369,2.039,2.0394,2.0386,2.0396,2.0372,2.0408,2.0361,2.0411,2.0374,2.0385,2.0383,2.0386,2.0387,2.0335,2.0411,2.0544,2.0556,2.0389,2.0387,2.0386,0,2.0339,2.0373,2.0416,2.0421,2.0416,2.0437,2.0436,2.0437,2.0449,2.0461,2.0468,2.0486,2.0496,2.051,2.049,2.0458,2.0542,2.0494,2.0535,2.0536,2.0554,2.0553,2.0689,2.0565,2.0564,2.0564,2.0564,0,2.0449,2.0491,2.0459,2.0486,2.0531,2.0503,2.0549,2.0543,2.0544,2.0569,2.0535,2.0559,2.0533,2.0554,2.054,2.0581,2.0587,2.0581,2.0576,2.0583,2.0583,2.0589,2.0582,2.0568,2.0567,2.0566,2.0566,0,2.0565,2.0546,2.0589,2.058,2.0578,2.0612,2.0604,2.0628,2.0616,2.0648,2.0654,2.0637,2.066,2.0642,2.0666,2.0656,2.071,2.0698,2.0708,2.0704,2.0746,2.0741,2.0889,2.0906,2.0772,2.0774,2.0775,0,2.0636,2.0666,2.0659,2.0671,2.0672,2.0694,2.0705,2.0678,2.0691,2.0696,2.0719,2.0739,2.0753,2.0793,2.0783,2.08,2.0787,2.0838,2.079,2.0795,2.0785,2.0783,2.0785,2.0847,2.0849,2.085,2.0851,0,2.0762,2.075,2.0766,2.0778,2.0791,2.08,2.0806,2.0819,2.0791,2.0808,2.0829,2.084,2.0863,2.0883,2.0896,2.0896,2.0869,2.0866,2.0876,2.0883,2.0886,2.0882,2.0732,2.0863,2.0862,2.0861,2.086,2.086,2.0856,2.088,2.0877,2.0895,2.0896,2.0902,2.0923,2.0913,2.093,2.0945,2.0929,2.0955,2.0956,2.0971,2.0973,2.0994,2.0973,2.0988,2.0992,2.0996,2.1,2.0884,2.0996,2.0996,2.0996,2.0995,2.0995,0,2.0979,2.0974,2.0991,2.0999,2.1013,2.0984,2.0989,2.1002,2.1025,2.1028,2.1041,2.1066,2.1084,2.1074,2.109,2.1108,2.1096,2.1113,2.1111,2.111,2.1019,2.1008,2.1122,2.1122,2.1122,2.1122,2.1122,2.1122,2.1044,2.1082,2.1069,2.1107,2.1102,2.1126,2.113,2.1135,2.1136,2.1164,2.1178,2.1171,2.1168,2.1183,2.1198,2.1195,2.1201,2.1223,2.1215,2.113,2.1117,2.1105,2.1094,2.1225,2.1225,2.1304,2.1305,2.1305]},{"header":{"parameterUnit":"m.s-1","parameterCategory":1,"la1":30.2991,"la2":30.254,"lo1":-89.0895,"lo2":-89.0444,"dy":0.0017,"dx":0.0017,"nx":28,"ny":28,"refTime":"2024-07-28T09:00:00:Z","depth":0,"parameterNumber":3,"parameterNumberName":"V-component_of_WINDS"},"data":[0,0,0,0,0,0,0,0,0,0,0,0,0,0,0,0,0,0,0,0,0,0,0,0,0,0,0,0,0,0,0,0,0,0,0,0,0,0,0,0,0,0,0,0,0,0,0,0,0,0,0,0,0,0,0,0,0,0,4.6807,4.6808,0,4.696,4.6962,4.6964,4.6943,4.694,4.6938,4.6935,4.7085,4.7091,4.7097,0,0,0,0,0,0,0,0,0,0,0,0,0,4.6487,4.6493,4.6807,4.6808,4.681,4.696,4.6962,4.6964,4.6943,4.694,4.6937,4.6934,4.7083,4.709,4.7098,0,0,0,0,0,0,0,0,0,0,0,0,0,4.6631,4.6495,4.6806,4.6818,4.6821,4.696,4.6962,4.6965,4.6944,4.694,4.6936,4.6933,4.708,4.7089,4.7099,4.7233,0,0,4.7128,4.7132,0,0,0,0,0,0,0,0,4.6623,4.6643,4.6815,4.6818,4.6821,4.6929,4.6904,4.7054,4.6945,4.6897,4.6935,4.6931,4.7035,4.7048,4.7085,4.724,4.7246,4.7129,4.7134,4.7138,4.7141,0,0,0,0,0,0,0,4.6613,4.6636,4.6867,4.6817,4.6821,4.6813,4.683,4.6932,4.6985,4.6901,4.69,4.6919,4.7036,4.7076,4.7088,4.7248,4.7128,4.7137,4.7143,4.7146,4.7519,4.7523,0,0,0,0,0,0,4.6601,4.6628,4.6862,4.6872,4.6711,4.6822,4.684,4.6898,4.6984,4.6994,4.6922,4.6917,4.7062,4.7077,4.7094,4.7255,4.7138,4.7147,4.7153,4.7515,4.752,4.7524,0,0,0,0,0,0,4.6594,4.6622,4.6856,4.675,4.6779,4.6832,4.6896,4.6903,4.6943,4.7,4.7008,4.6953,4.7059,4.708,4.7199,4.726,4.7151,4.716,4.751,4.7516,4.7522,4.7581,0,0,0,0,0,0,4.6585,4.662,4.6674,4.6751,4.6785,4.6961,4.69,4.6909,4.696,4.6955,4.7032,4.7041,4.7058,4.7185,4.7208,4.7271,4.7167,4.7504,4.7513,4.752,4.7573,4.7588,4.7601,0,0,0,0,0,4.6574,4.6682,4.6676,4.6705,4.6853,4.6965,4.6984,4.7004,4.6965,4.7018,4.7055,4.7038,4.725,4.7197,4.7223,4.729,4.7501,4.751,4.752,4.7567,4.7585,4.7601,0,0,0,0,0,0,4.6608,4.6693,4.6687,4.6824,4.6888,4.6961,4.7029,4.7022,4.7096,4.7088,4.7107,4.7125,4.7244,4.7279,4.7218,4.7424,4.737,4.7385,4.7397,4.7414,4.7428,4.7416,4.7175,0,0,0,0,0,4.6632,4.6718,4.6786,4.6901,4.6933,4.6976,4.7025,4.7035,4.71,4.7126,4.7172,4.7233,4.7314,4.7366,4.7443,4.7578,4.7593,4.7637,4.7651,4.7662,4.7674,4.7747,4.7767,4.7556,4.7555,4.7555,0,0,4.6681,4.6738,4.6791,4.6909,4.6959,4.7046,4.6998,4.7092,4.7155,4.714,4.7255,4.729,4.736,4.7487,4.7545,4.752,4.7736,4.7674,4.7682,4.7689,4.7759,4.7779,4.7796,4.7562,4.7561,4.756,0,0,4.6815,4.6868,4.6969,4.7021,4.7098,4.7126,4.715,4.7225,4.7248,4.7365,4.7355,4.7429,4.7567,4.7617,4.7661,4.7813,4.78,4.7838,4.7909,4.7979,4.7996,4.8011,4.8064,4.8083,4.785,4.785,4.785,0,4.6865,4.6998,4.702,4.7116,4.7167,4.716,4.726,4.7308,4.7406,4.7441,4.7411,4.7585,4.7631,4.7769,4.7807,4.7843,4.7869,4.7829,4.7992,4.8007,4.8021,4.8072,4.8092,4.7854,4.7854,4.7853,4.7853,0,4.7056,4.7148,4.7219,4.7317,4.7376,4.7473,4.7508,4.7564,4.7569,4.7599,4.7716,4.7772,4.786,4.7893,4.7898,4.8032,4.8014,4.7988,4.7934,4.8045,4.8093,4.8113,4.786,4.7858,4.7857,4.7856,0,0,4.7215,4.7324,4.735,4.7394,4.7479,4.7549,4.7645,4.7734,4.7781,4.7848,4.7928,4.8045,4.8022,4.8071,4.8081,4.8144,4.8259,4.811,4.8112,4.8135,4.8408,4.8426,4.8449,4.8251,4.8255,4.8258,4.8402,0,4.7356,4.7529,4.7552,4.7703,4.7787,4.7781,4.7864,4.7924,4.7954,4.8027,4.8059,4.8142,4.8106,4.8136,4.8197,4.8232,4.8314,4.8222,4.8323,4.8326,4.8305,4.8474,4.8494,4.8627,4.8421,4.8424,4.8427,0,4.7544,4.762,4.7781,4.7854,4.789,4.7965,4.8047,4.8119,4.8185,4.8202,4.8258,4.826,4.8356,4.8299,4.843,4.8367,4.8409,4.8433,4.8438,4.8447,4.8382,4.8486,4.867,4.8689,4.8457,4.8454,4.8452,0,4.7643,4.7784,4.7899,4.7937,4.8025,4.8078,4.8117,4.818,4.8231,4.8303,4.8336,4.8416,4.846,4.8521,4.8543,4.85,4.8673,4.8618,4.8687,4.8687,4.8723,4.8721,4.8915,4.8753,4.8752,4.8752,4.8751,0,4.7798,4.7896,4.7944,4.8015,4.8124,4.8148,4.8254,4.829,4.8347,4.8422,4.8421,4.849,4.8517,4.859,4.8608,4.8713,4.8733,4.8747,4.8751,4.8747,4.8745,4.8774,4.8765,4.8757,4.8756,4.8755,4.8754,0,4.7926,4.7962,4.8087,4.8161,4.8182,4.8259,4.8321,4.8388,4.8417,4.8512,4.8536,4.8581,4.8667,4.8696,4.88,4.8812,4.8934,4.893,4.8912,4.8912,4.898,4.8973,4.9199,4.9229,4.9048,4.905,4.9051,0,4.8022,4.8098,4.8181,4.8233,4.8274,4.8357,4.841,4.8436,4.8491,4.8573,4.8629,4.8715,4.8785,4.8923,4.8963,4.9042,4.9039,4.9112,4.905,4.9044,4.9038,4.9033,4.904,4.9123,4.9125,4.9127,4.9128,0,4.8188,4.8202,4.8281,4.8366,4.843,4.8497,4.8562,4.8604,4.8638,4.87,4.879,4.8844,4.8951,4.9036,4.9117,4.9153,4.9146,4.9148,4.9168,4.9164,4.9151,4.9158,4.8943,4.9142,4.9141,4.914,4.9139,4.9138,4.8302,4.8369,4.8438,4.8525,4.8577,4.8638,4.8704,4.8743,4.8819,4.891,4.892,4.9016,4.9079,4.9187,4.9227,4.9301,4.928,4.9309,4.9316,4.9323,4.9328,4.914,4.9315,4.9315,4.9315,4.9315,4.9314,0,4.8467,4.8511,4.8591,4.8684,4.8751,4.8742,4.8813,4.8869,4.8955,4.9016,4.9086,4.9188,4.927,4.9318,4.9399,4.9449,4.9447,4.9469,4.9465,4.9473,4.9342,4.9317,4.9469,4.9469,4.9469,4.9469,4.9469,4.9469,4.856,4.8673,4.8696,4.8833,4.8876,4.8973,4.9014,4.9069,4.9118,4.9233,4.9302,4.9334,4.9388,4.9474,4.9548,4.9559,4.9588,4.9612,4.9621,4.9498,4.9482,4.9467,4.9443,4.9619,4.9619,4.9746,4.9747,4.9748]}]]